Weather in Lebedevka

Russia / Tyumen Oblast     56°47′24″N   66°57′24″E
temp.,
°C
wind,
m/s
gust,
m/s
humid.,
%
clouds,
%
prec.,
mm/h
press.,
hPa
HPBL,
m
18 april, sun
sun1823:00+4wsw23609 0.0 101743
02:00+2wsw356980 0.0 101592
05:00+3wsw41269100 0.0 1013396
08:00+5w61266100 0.0 1011819
11:00+6nw71355100 0.2 10121894
14:00+1n9134592 0.1 10191655
17:00+1n710310 0.1 10231842
20:00−4n610420 0.0 10271296
19 april, mon
mon1923:00−5n59484 0.0 10301255
02:00−7nne48495 0.0 10311167
05:00−7nne36535 0.0 10331050
08:00−5n4644100 0.0 10341418
11:00−3n4632100 0.0 10341926
14:000n5627100 0.0 10332291
17:000n4627100 0.0 10332249
20:00−4nne22435 0.0 103430
20 april, tue
tue2023:00−5ne22470 0.0 103420
02:00−5nnw00475 0.0 103410
05:00−6wsw23485 0.0 103454
08:00−1w36365 0.0 1033532
11:00+3w572911 0.0 10301352
14:00+7w69295 0.0 10271779
17:00+8wnw610355 0.0 10251797
20:00+4wnw41052100 0.0 1024266
21 april, wed
wed2123:00+2wnw4126586 0.0 1025328
02:00+2nnw3107756 0.0 1025291
05:00−1nnw39945 0.0 1027264
08:00+2n59665 0.0 1029749
11:00+5n57430 0.0 10301163
14:00+8nne56320 0.0 10311459
17:00+8nne45310 0.0 10321536
20:00+4ene23480 0.0 103545
22 april, thu
thu2223:00+2e22590 0.0 103630
02:000se24680 0.0 103875
05:00−1sse23720 0.0 103957
08:00+4s34520 0.0 1040371
11:00+8s33380 0.0 10401164
14:00+10s33325 0.0 10391598
17:00+11s33320 0.0 10381638
20:00+7sse36490 0.0 1039106